This is the latest recevied weather packets stored in our database for station/object I1SXT-13. If no packets are shown the sender has not sent any weather packets the latest 10 day(s).
| Time | Temp. | Humidity | Pressure | Rain* | Wind** | Luminosity | Snow |
|---|---|---|---|---|---|---|---|
| 1778255069 | 23.33° C | 41% | 1014 hPa | 0 mm | - | - | - |
| 1778254765 | 23.89° C | 42% | 1014.3 hPa | 0 mm | - | - | - |
| 1778254468 | 23.89° C | 44% | 1014.2 hPa | 0 mm | - | - | - |
| 1778254164 | 23.89° C | 40% | 1013.4 hPa | 0 mm | - | - | - |
| 1778253866 | 24.44° C | 41% | 1014.4 hPa | 0 mm | - | - | - |
| 1778253569 | 24.44° C | 46% | 1014 hPa | 0 mm | - | - | - |
| 1778253265 | 24.44° C | 45% | 1014.5 hPa | 0 mm | - | - | - |
| 1778252968 | 23.89° C | 41% | 1013.9 hPa | 0 mm | - | - | - |
| 1778252664 | 24.44° C | 42% | 1014.5 hPa | 0 mm | - | - | - |
| 1778252367 | 24.44° C | 42% | 1014.3 hPa | 0 mm | - | - | - |
| 1778252070 | 25.56° C | 37% | 1014.1 hPa | 0 mm | - | - | - |
| 1778251766 | 25.56° C | 40% | 1014.2 hPa | 0 mm | - | - | - |
| 1778251469 | 25.56° C | 36% | 1014.2 hPa | 0 mm | - | - | - |
| 1778251164 | 25° C | 33% | 1014.1 hPa | 0 mm | - | - | - |
| 1778250867 | 26.11° C | 33% | 1013.8 hPa | 0 mm | - | - | - |
| 1778250570 | 26.67° C | 28% | 1014.4 hPa | 0 mm | - | - | - |
| 1778250266 | 27.22° C | 31% | 1014.3 hPa | 0 mm | - | - | - |
| 1778249969 | 26.11° C | 31% | 1014.2 hPa | 0 mm | - | - | - |
| 1778249665 | 26.11° C | 29% | 1013.7 hPa | 0 mm | - | - | - |
| 1778249368 | 27.22° C | 28% | 1014.4 hPa | 0 mm | - | - | - |
| 1778249064 | 27.78° C | 30% | 1014.7 hPa | 0 mm | - | - | - |
| 1778248767 | 27.78° C | 35% | 1014.3 hPa | 0 mm | - | - | - |
| 1778248469 | 27.22° C | 33% | 1014.5 hPa | 0 mm | - | - | - |
| 1778248165 | 27.22° C | 35% | 1014.4 hPa | 0 mm | - | - | - |
| 1778247868 | 27.78° C | 37% | 1014.2 hPa | 0 mm | - | - | - |
* Rain since midnight (hover to see other rain measurements)
** Current wind speed in m/s (hover to see current wind gust speed)